Location: Hokitika
(42.7170°S, 170.9670°E)
Time: 16:54:47
(UTC+12:00)

Cosmos 1633 - Pass Details

Date: 24 January 2019
Orbit: 467 x 483 km, 82.5° (Epoch: 18 April)

Event Time Altitude Azimuth Distance (km) Brightness Sun altitude
Rises 23:13:34 0° 194° (SSW) 2,553 7.4 -18.6°
Reaches altitude 10° 23:15:43 10° 200° (SSW) 1,667 6.4 -18.8°
Maximum altitude 23:19:14 47° 274° (W) 642 3.3 -19.2°
Enters shadow 23:20:31 32° 327° (NNW) 853 3.6 -19.4°
